QIKCOM-1 (42983 NORAD) Tracking and Keplerian Element Data

This shows tracking and keplerian element data for the satellite.

Feedback or suggestion? Click here.




ElementValue
Catalog42983
NameQIKCOM-1
Epoch Orbit8383
Epoch Day108.72950143
Epoch Year2019
RAAN286.1936
Inclination51.6389
Eccentricity0.0003658
Argument of Perigee253.8564
Mean Anonmoly106.2026
Mean Motion15.58414168
Decay Rate3.45E-05
L11 42983U 98067NF 19108.72950143 .00003450 00000-0 50968-4 0 9990
L22 42983 51.6389 286.1936 0003658 253.8564 106.2026 15.58414168 83832

Live tracking and technical data element details for QIKCOM-1 (NORAD 42983). QIKCOM-1 can be tracked NOW for your location showing map with azimuth and elevation plus other details from your city location.

Track the satellite on the map from your city or location and see movement details for azimuth, elevation, latitude, longitude, range, height, and movement on the map or in text.







IsCatalogInMostPopularTable: catalog: 42983, numindb: 203
Update: records affected: 1



GetName: 42983 QIKCOM-1

Hit Count: updated at: Sat, 20 Apr 2019 20:35:27 GMT